Location: Newark
(31.5350°N, 35.0986°E)
Time: 08:37:32
(UTC+00:00)

Vanguard 2 - All Passes

Search period start: 22 September 2019 00:00
Search period end: 02 October 2019 00:00
Orbit: 554 x 2937 km, 32.9° (Epoch: 21 September)

Date Brightness Start Highest point End Pass type
(mag) Time Alt. Az. Time Alt. Az. Time Alt. Az.
22 Sep - 01:29:03 10° W 01:42:43 88° N 01:50:37 10° E visible
22 Sep - 03:42:54 10° W 03:52:43 89° N 03:58:28 10° E daylight
22 Sep - 05:55:11 10° W 06:01:05 35° SSW 06:05:14 10° SE daylight
22 Sep - 19:19:19 10° SSE 19:26:36 14° SE 19:33:34 10° ESE night (unlit)
22 Sep - 21:22:38 10° SSW 21:38:14 40° SSE 21:50:20 10° E visible
22 Sep - 23:33:33 10° WSW 23:49:54 73° SSE 00:00:16 10° ENE visible
23 Sep - 01:47:34 10° W 02:00:55 83° N 02:08:38 10° E visible
23 Sep - 04:01:16 10° WNW 04:10:47 80° SSW 04:16:24 10° ESE daylight
23 Sep - 06:13:50 10° W 06:18:42 23° SW 06:22:22 10° SSE daylight
23 Sep - 19:33:21 10° S 19:44:39 20° SE 19:55:07 10° E night (unlit)
23 Sep - 21:39:45 10° SW 21:56:20 49° SSE 22:08:49 10° E visible
23 Sep - 23:51:44 10° WSW 00:08:06 82° SSE 00:18:18 10° ENE visible
24 Sep - 02:06:06 10° W 02:19:08 83° N 02:26:39 10° E visible
24 Sep - 04:19:37 10° WNW 04:28:45 66° SSW 04:34:13 10° ESE daylight
24 Sep - 06:33:04 10° WSW 06:36:12 14° SW 06:38:50 10° S daylight
24 Sep - 19:48:58 10° SSW 20:02:37 28° SE 20:15:00 10° E visible
24 Sep - 21:57:13 10° SW 22:14:27 59° SSE 22:27:07 10° E visible
25 Sep - 00:10:06 10° WSW 00:26:20 89° SSE 00:36:21 10° E visible
25 Sep - 02:24:37 10° W 02:37:21 86° N 02:44:40 10° E visible
25 Sep - 04:38:00 10° W 04:46:34 50° SSW 04:51:52 10° SE daylight
25 Sep - 18:07:49 10° SE 18:09:20 10° SE 18:10:51 10° SE visible
25 Sep - 20:05:21 10° SSW 20:20:35 36° SE 20:34:08 10° E visible
25 Sep - 22:15:00 10° SW 22:32:37 69° SSE 22:45:18 10° ENE visible
26 Sep - 00:28:36 10° W 00:44:37 86° N 00:54:24 10° E visible
26 Sep - 02:43:05 10° W 02:55:31 87° SSW 03:02:39 10° ESE visible
26 Sep - 04:56:31 10° W 05:04:15 36° SW 05:09:17 10° SSE daylight
26 Sep - 18:18:05 10° SSE 18:27:14 17° SE 18:36:28 10° ESE visible
26 Sep - 20:22:14 10° SSW 20:38:34 45° SSE 20:52:50 10° E visible
26 Sep - 22:33:02 10° WSW 22:50:50 78° SSE 23:03:24 10° ENE visible
27 Sep - 00:47:09 10° W 01:02:55 84° N 01:12:27 10° E visible
27 Sep - 03:01:32 10° WNW 03:13:35 77° SSW 03:20:32 10° ESE visible
27 Sep - 05:15:17 10° W 05:21:46 25° SW 05:26:21 10° SSE daylight
27 Sep - 18:33:01 10° S 18:45:02 24° SE 18:57:14 10° E visible
27 Sep - 20:39:30 10° SW 20:56:35 55° SSE 21:11:16 10° ENE visible
27 Sep - 22:51:15 10° WSW 23:09:06 86° SSE 23:21:31 10° E visible
28 Sep - 01:05:42 10° W 01:21:13 85° N 01:30:31 10° E visible
28 Sep - 03:19:57 10° WNW 03:31:32 64° SSW 03:38:18 10° SE daylight
28 Sep - 05:34:37 10° W 05:39:11 16° SW 05:42:47 10° S daylight
28 Sep - 18:49:02 10° SSW 19:02:49 32° SE 19:16:50 10° E visible
28 Sep - 20:57:05 10° SW 21:14:41 65° SSE 21:29:34 10° ENE visible
28 Sep - 23:09:39 10° WSW 23:27:26 89° N 23:39:37 10° E visible
29 Sep - 01:24:15 10° W 01:39:29 89° N 01:48:33 10° E visible
29 Sep - 03:38:26 10° WNW 03:49:20 50° SSW 03:55:54 10° SE daylight
29 Sep - 17:05:24 10° SSE 17:10:04 12° SE 17:14:56 10° ESE visible
29 Sep - 19:05:39 10° SSW 19:20:37 40° SE 19:35:51 10° E visible
29 Sep - 21:14:56 10° WSW 21:32:52 74° SSE 21:47:47 10° ENE visible
29 Sep - 23:28:08 10° W 23:45:49 85° N 23:57:44 10° E visible
30 Sep - 01:42:45 10° WNW 01:57:41 84° SSW 02:06:32 10° ESE visible
30 Sep - 03:57:01 10° W 04:06:58 38° SW 04:13:14 10° SSE daylight
30 Sep - 17:18:24 10° S 17:27:42 18° SE 17:37:54 10° E visible
30 Sep - 19:22:42 10° SW 19:38:30 50° SE 19:54:30 10° ENE visible
30 Sep - 21:33:00 10° WSW 21:51:08 82° SSE 22:05:57 10° ENE visible
30 Sep - 23:46:41 10° W 00:04:13 85° N 00:15:52 10° E visible
01 Oct - 02:01:13 10° WNW 02:15:47 74° SSW 02:24:25 10° ESE visible
01 Oct - 04:15:53 10° W 04:24:26 27° SW 04:30:14 10° SSE daylight
01 Oct - 17:33:48 10° S 17:45:18 26° SE 17:58:18 10° E visible
01 Oct - 19:40:05 10° SW 19:56:28 59° SSE 20:12:56 10° ENE visible
01 Oct - 21:51:15 10° WSW 22:09:29 88° SSE 22:24:07 10° E visible
